Weather History for Winchester, VA

Change the Weather History Date:

Tuesday, February 19, 2013

  Actual Average Record
Temperature  
Mean Temperature 40 °F -  
Max Temperature 51 °F 46 °F 71 °F (1997)
Min Temperature 30 °F 28 °F 8 °F (1993)
Degree Days  
Heating Degree Days 24    
Moisture  
Dew Point 30 °F    
Average Humidity 70    
Maximum Humidity 93    
Minimum Humidity 56    
Precipitation  
Precipitation 0.01 in - - ()
Sea Level Pressure  
Sea Level Pressure 29.86 in    
Wind  
Wind Speed 7 mph (SW)    
Max Wind Speed 22 mph    
Max Gust Speed 31 mph    
Visibility 10 miles    
Events Rain , Thunderstorm    
Averages and records for this station are not official NWS values.
T = Trace of Precipitation, MM = Missing Value Source: NWS Daily Summary

Daily Weather History Graph

Daily Weather History Graph

Search for Another Location

Airport:

Trip Planner

Search our weather history database for the weather conditions in past years. The results will help you decide how hot, cold, wet, or windy it might be!

Date:

Astronomy

Feb. 19, 2013 Rise Set
Actual Time 6:58 AM EST 5:54 PM EST
Civil Twilight 6:31 AM EST 6:21 PM EST
Nautical Twilight 6:00 AM EST 6:52 PM EST
Astronomical Twilight 5:29 AM EST 7:23 PM EST
Moon 12:25 PM EST (2/19) 2:27 AM EST (2/19)
Length of Visible Light 11h 50m
Length of Day
10h 55m
Waxing Gibbous, 67% of the Moon is Illuminated
Feb 19
Waxing Gibbous
Feb 25
Full
Mar 4
Last Quarter
Mar 11
New
Mar 19
First Quarter

Hourly Weather History & Observations

Time (EST) Temp. Windchill Dew Point Humidity Pressure Visibility Wind Dir Wind Speed Gust Speed Precip Events Conditions
12:15 AM 35.6 °F 29.9 °F 23.0 °F 60% 30.07 in 10.0 mi South 6.9 mph - N/A   Clear
12:35 AM 33.8 °F 30.8 °F 23.0 °F 65% 30.05 in 10.0 mi South 3.5 mph - N/A   Clear
12:55 AM 33.8 °F - 23.0 °F 65% 30.05 in 10.0 mi Calm Calm - N/A   Clear
1:15 AM 33.8 °F - 23.0 °F 65% 30.05 in 10.0 mi Calm Calm - N/A   Clear
1:35 AM 33.8 °F 27.7 °F 23.0 °F 65% 30.05 in 10.0 mi South 6.9 mph - N/A   Clear
1:55 AM 33.8 °F 27.7 °F 23.0 °F 65% 30.04 in 10.0 mi SSW 6.9 mph - N/A   Clear
2:15 AM 33.8 °F 29.6 °F 23.0 °F 65% 30.03 in 10.0 mi South 4.6 mph - N/A   Clear
2:35 AM 33.8 °F 30.8 °F 23.0 °F 65% 30.02 in 10.0 mi SSE 3.5 mph - N/A   Clear
2:55 AM 32.0 °F - 23.0 °F 69% 30.01 in 10.0 mi Calm Calm - N/A   Clear
3:15 AM 30.2 °F - 23.0 °F 75% 30.00 in 10.0 mi Calm Calm - N/A   Clear
3:35 AM 32.0 °F 26.4 °F 24.8 °F 75% 29.97 in 10.0 mi SSE 5.8 mph - N/A   Scattered Clouds
3:55 AM 33.8 °F 29.6 °F 26.6 °F 75% 29.97 in 10.0 mi South 4.6 mph - N/A   Scattered Clouds
4:15 AM 35.6 °F 32.8 °F 26.6 °F 70% 29.95 in 10.0 mi SSE 3.5 mph - N/A   Clear
4:35 AM 35.6 °F - 26.6 °F 70% 29.94 in 10.0 mi Calm Calm - N/A   Clear
4:55 AM 35.6 °F 29.9 °F 26.6 °F 70% 29.93 in 10.0 mi South 6.9 mph - N/A   Scattered Clouds
5:15 AM 35.6 °F 31.7 °F 26.6 °F 70% 29.93 in 10.0 mi South 4.6 mph - N/A   Mostly Cloudy
5:35 AM 35.6 °F 30.7 °F 26.6 °F 70% 29.93 in 10.0 mi South 5.8 mph - N/A   Overcast
5:55 AM 35.6 °F - 26.6 °F 70% 29.92 in 10.0 mi Calm Calm - N/A   Overcast
6:15 AM 35.6 °F 32.8 °F 26.6 °F 70% 29.93 in 10.0 mi South 3.5 mph - N/A   Overcast
6:35 AM 35.6 °F - 26.6 °F 70% 29.93 in 10.0 mi Calm Calm - N/A   Overcast
6:55 AM 35.6 °F 31.7 °F 26.6 °F 70% 29.91 in 10.0 mi SSE 4.6 mph - N/A   Overcast
7:15 AM 35.6 °F - 26.6 °F 70% 29.90 in 10.0 mi Calm Calm - N/A   Overcast
7:35 AM 35.6 °F - 28.4 °F 75% 29.90 in 10.0 mi Calm Calm - N/A   Light Drizzle
7:55 AM 35.6 °F - 30.2 °F 81% 29.90 in 4.0 mi Calm Calm - N/A Rain Light Rain
8:15 AM 35.6 °F 30.7 °F 32.0 °F 87% 29.89 in 7.0 mi South 5.8 mph - 0.01 in Rain Rain
8:35 AM 37.4 °F 32.1 °F 32.0 °F 81% 29.90 in 7.0 mi SSW 6.9 mph - 0.01 in Rain Light Rain
8:55 AM 37.4 °F 30.8 °F 33.8 °F 87% 29.89 in 10.0 mi South 9.2 mph - 0.01 in Rain Light Rain
9:15 AM 37.4 °F 30.8 °F 33.8 °F 87% 29.88 in 10.0 mi South 9.2 mph - N/A Rain Rain
9:35 AM 37.4 °F 29.8 °F 35.6 °F 93% 29.87 in 10.0 mi South 11.5 mph 17.3 mph N/A Rain Light Rain
9:55 AM 39.2 °F 30.8 °F 35.6 °F 87% 29.86 in 10.0 mi South 15.0 mph - N/A   Light Drizzle
10:15 AM 41.0 °F 34.7 °F 35.6 °F 81% 29.86 in 10.0 mi SSW 10.4 mph 17.3 mph N/A   Mostly Cloudy
10:35 AM 41.0 °F 34.7 °F 35.6 °F 81% 29.85 in 10.0 mi SW 10.4 mph 19.6 mph N/A   Overcast
10:55 AM 41.0 °F 35.2 °F 35.6 °F 81% 29.84 in 10.0 mi SW 9.2 mph - N/A   Overcast
11:15 AM 42.8 °F 37.0 °F 35.6 °F 76% 29.82 in 10.0 mi SW 10.4 mph - N/A   Mostly Cloudy
11:35 AM 42.8 °F 38.0 °F 37.4 °F 81% 29.81 in 10.0 mi SW 8.1 mph 17.3 mph N/A   Mostly Cloudy
11:55 AM 44.6 °F 39.2 °F 37.4 °F 76% 29.80 in 10.0 mi SW 10.4 mph - N/A   Mostly Cloudy
12:15 PM 44.6 °F 39.7 °F 37.4 °F 76% 29.79 in 10.0 mi SW 9.2 mph 16.1 mph N/A   Overcast
12:35 PM 44.6 °F 39.2 °F 37.4 °F 76% 29.77 in 10.0 mi SW 10.4 mph - N/A   Overcast
12:55 PM 44.6 °F 39.7 °F 37.4 °F 76% 29.75 in 10.0 mi SW 9.2 mph - N/A   Mostly Cloudy
1:35 PM 50.0 °F - 41.0 °F 71% 29.72 in 10.0 mi SSW 11.5 mph 17.3 mph N/A   Scattered Clouds
1:55 PM 50.0 °F - 39.2 °F 66% 29.70 in 10.0 mi SSW 8.1 mph 17.3 mph N/A   Mostly Cloudy
2:15 PM 50.0 °F - 41.0 °F 71% 29.70 in 10.0 mi South 11.5 mph - N/A   Scattered Clouds
2:35 PM 51.8 °F - 41.0 °F 67% 29.69 in 10.0 mi SSW 15.0 mph 20.7 mph N/A   Scattered Clouds
2:55 PM 51.8 °F - 41.0 °F 67% 29.67 in 10.0 mi SSW 8.1 mph 17.3 mph N/A   Scattered Clouds
3:15 PM 51.8 °F - 39.2 °F 62% 29.67 in 10.0 mi WSW 13.8 mph 21.9 mph N/A   Scattered Clouds
3:35 PM 51.8 °F - 37.4 °F 58% 29.67 in 10.0 mi WSW 15.0 mph 20.7 mph N/A   Scattered Clouds
3:55 PM 46.4 °F 40.4 °F 37.4 °F 71% 29.69 in 7.0 mi WSW 13.8 mph 25.3 mph N/A Rain , Thunderstorm Light Thunderstorms and Rain
4:15 PM 44.6 °F 39.2 °F 37.4 °F 76% 29.72 in 10.0 mi SW 10.4 mph - N/A   Overcast
4:35 PM 44.6 °F 41.4 °F 37.4 °F 76% 29.70 in 10.0 mi WSW 5.8 mph - N/A   Mostly Cloudy
4:55 PM 46.4 °F 41.9 °F 35.6 °F 66% 29.71 in 10.0 mi West 9.2 mph - N/A   Scattered Clouds
5:15 PM 46.4 °F 41.5 °F 33.8 °F 62% 29.72 in 10.0 mi WSW 10.4 mph 16.1 mph N/A   Scattered Clouds
5:35 PM 44.6 °F 40.2 °F 33.8 °F 66% 29.73 in 10.0 mi WSW 8.1 mph 19.6 mph N/A   Clear
5:55 PM 44.6 °F 37.2 °F 30.2 °F 57% 29.75 in 10.0 mi West 17.3 mph 24.2 mph N/A   Scattered Clouds
6:15 PM 42.8 °F 34.8 °F 30.2 °F 61% 29.76 in 10.0 mi West 17.3 mph 24.2 mph N/A   Clear
6:35 PM 42.8 °F 35.4 °F 30.2 °F 61% 29.77 in 10.0 mi West 15.0 mph 27.6 mph N/A   Clear
7:35 PM 41.0 °F 33.1 °F 30.2 °F 65% 29.81 in 10.0 mi WNW 15.0 mph 25.3 mph N/A   Clear
7:55 PM 39.2 °F 29.8 °F 30.2 °F 70% 29.81 in 10.0 mi West 18.4 mph - N/A   Clear
8:15 PM 39.2 °F 30.2 °F 28.4 °F 65% 29.82 in 10.0 mi West 17.3 mph - N/A   Clear
8:55 PM 37.4 °F 28.9 °F 28.4 °F 70% 29.83 in 10.0 mi WNW 13.8 mph 20.7 mph N/A   Scattered Clouds
9:15 PM 37.4 °F 28.2 °F 24.8 °F 60% 29.84 in 10.0 mi West 16.1 mph 23.0 mph N/A   Scattered Clouds
9:35 PM 37.4 °F 26.6 °F 23.0 °F 56% 29.85 in 10.0 mi West 21.9 mph 27.6 mph N/A   Scattered Clouds
9:55 PM 37.4 °F 29.3 °F 23.0 °F 56% 29.85 in 10.0 mi West 12.7 mph - N/A   Scattered Clouds
10:15 PM 35.6 °F 24.8 °F 24.8 °F 65% 29.85 in 10.0 mi West 19.6 mph 27.6 mph N/A   Scattered Clouds
10:35 PM 35.6 °F 25.2 °F 23.0 °F 60% 29.85 in 10.0 mi West 18.4 mph 31.1 mph N/A   Scattered Clouds
10:55 PM 35.6 °F 25.9 °F 23.0 °F 60% 29.85 in 10.0 mi West 16.1 mph 23.0 mph N/A   Scattered Clouds
11:15 PM 35.6 °F 25.5 °F 23.0 °F 60% 29.85 in 10.0 mi West 17.3 mph 26.5 mph N/A   Clear
11:35 PM 35.6 °F 28.6 °F 23.0 °F 60% 29.85 in 10.0 mi West 9.2 mph 24.2 mph N/A   Scattered Clouds
11:55 PM 35.6 °F 27.5 °F 21.2 °F 56% 29.85 in 10.0 mi WSW 11.5 mph 25.3 mph N/A   Scattered Clouds